sat.trackr.live / text

‹ back to catalog

STARLINK-37614

NORAD 69041 · 2026-101S

PAYLOAD ACTIVE UNKNOWN

§ Identity

Operator
Country
US
Launch date
2026-05-06
Launch site
AFWTR
Launch vehicle
Mass (kg)
RCS (m²)

Purposes: comms

External: N2YO · Heavens-Above · Gunter

§ Orbital elements

Epoch: 2026-09-19T01:00:04.324608Z

Period
93.91 min
Inclination
97.2825°
Eccentricity
0.0003673
Mean motion
15.33445053 rev/d
Perigee alt
463.0 km
Apogee alt
468.1 km
Semi-major
6,843.7 km
B*
3.4722e-4
RAAN
115.5214°
Arg perigee
82.0304°
Mean anomaly
278.1356°
Rev number
2,095

§ Raw data

STARLINK-376141 69041U 26101S   26262.04171672  .00011153  00000+0  34722-3 0  99972 69041  97.2825 115.5214 0003673  82.0304 278.1356 15.33445053 20951

JSON: /api/v1/satellites/69041 · /tle

For live sub-satellite position, see the globe view (requires WebGL).

§ Visibility from observer

Set your observer location to see the next 7 days of passes ≥ 10°. The values pass through the URL so the page stays shareable.

No JS? Fill the form by hand. The geolocation button needs JavaScript.